CH4SAO CYYJ-CYVR

Flight info

Callsign CH4SAO
Flight time N/A
Altitude
Route
Aircraft C172

Departure

Time 2026-04-26 03:36
Airport Victoria International Airport (CYYJ)

Arrival

Time N/A
Airport Vancouver International Airport (CYVR)
Time Latitude Longitude Altitude Speed Heading
2026-04-26 03:36 48.76262 -123.31756 2491 ft 121 kts 15°
2026-04-26 03:37 48.76292 -123.31741 2488 ft 121 kts 15°
2026-04-26 03:37 48.76152 -123.31075 2490 ft 121 kts 178°
2026-04-26 03:37 48.75343 -123.31322 2448 ft 127 kts 212°
2026-04-26 03:37 48.74601 -123.32059 2435 ft 125 kts 220°
2026-04-26 03:38 48.73832 -123.32680 2434 ft 128 kts 206°
2026-04-26 03:38 48.73049 -123.33103 2567 ft 117 kts 206°
2026-04-26 03:38 48.72265 -123.33602 2487 ft 128 kts 208°
2026-04-26 03:38 48.71410 -123.34253 2189 ft 139 kts 211°
2026-04-26 03:39 48.70637 -123.34941 2150 ft 120 kts 215°
2026-04-26 03:39 48.69919 -123.35607 1970 ft 122 kts 216°
2026-04-26 03:39 48.69273 -123.36437 1766 ft 121 kts 226°
2026-04-26 03:39 48.68669 -123.37283 1589 ft 118 kts 228°
2026-04-26 03:40 48.68093 -123.38158 1429 ft 118 kts 230°
2026-04-26 03:40 48.67519 -123.39055 1288 ft 118 kts 229°
2026-04-26 03:40 48.66930 -123.39914 1166 ft 117 kts 226°
2026-04-26 03:40 48.66319 -123.40750 970 ft 120 kts 226°
2026-04-26 03:41 48.65730 -123.41647 798 ft 121 kts 227°
2026-04-26 03:41 48.65193 -123.42578 680 ft 112 kts 232°
2026-04-26 03:41 48.65167 -123.43461 709 ft 98 kts 322°
2026-04-26 03:41 48.65570 -123.44341 596 ft 104 kts 292°
2026-04-26 03:42 48.65707 -123.45342 576 ft 93 kts 250°
2026-04-26 03:42 48.65297 -123.45861 531 ft 72 kts 172°
2026-04-26 03:42 48.65272 -123.45204 308 ft 88 kts 77°
2026-04-26 03:42 48.65251 -123.44302 168 ft 88 kts 106°
2026-04-26 03:43 48.65095 -123.43457 50 ft 70 kts 109°
2026-04-26 03:43 48.64996 -123.42966 52 ft 23 kts 105°
2026-04-26 03:43 48.64978 -123.42864 53 ft 19 kts 105°
2026-04-26 03:43 48.64890 -123.42407 58 ft 67 kts 106°
2026-04-26 03:44 48.64782 -123.41733 296 ft 66 kts 103°
2026-04-26 03:44 48.64696 -123.40977 485 ft 74 kts 102°
2026-04-26 03:44 48.65028 -123.40569 632 ft 88 kts
2026-04-26 03:44 48.65495 -123.40871 847 ft 86 kts 282°
2026-04-26 03:45 48.65594 -123.41852 967 ft 99 kts 280°
2026-04-26 03:45 48.65698 -123.42921 1083 ft 105 kts 279°
2026-04-26 03:45 48.65788 -123.44003 1136 ft 100 kts 279°
2026-04-26 03:45 48.65765 -123.45004 1119 ft 91 kts 237°
2026-04-26 03:46 48.65333 -123.44627 480 ft 115 kts 84°
2026-04-26 03:46 48.65107 -123.43497 91 ft 100 kts 105°
2026-04-26 03:46 48.64954 -123.42640 365 ft 83 kts 109°
2026-04-26 03:47 48.65087 -123.41225 829 ft 83 kts 358°
2026-04-26 03:47 48.65647 -123.41156 1107 ft 78 kts 345°
2026-04-26 03:47 48.65879 -123.41892 1237 ft 88 kts 286°
2026-04-26 03:47 48.66014 -123.42888 1336 ft 100 kts 283°
2026-04-26 03:48 48.66127 -123.43973 1372 ft 111 kts 283°
2026-04-26 03:48 48.66245 -123.45147 1394 ft 111 kts 278°
2026-04-26 03:48 48.65985 -123.46149 1358 ft 113 kts 218°
2026-04-26 03:48 48.65489 -123.45360 512 ft 130 kts 113°
2026-04-26 03:49 48.65235 -123.44151 191 ft 108 kts 109°
2026-04-26 03:49 48.65044 -123.43198 59 ft 80 kts 108°
2026-04-26 03:49 48.64916 -123.42553 63 ft 56 kts 104°
2026-04-26 03:49 48.64833 -123.41948 189 ft 65 kts 100°
2026-04-26 03:50 48.64752 -123.41226 374 ft 71 kts 89°
2026-04-26 03:50 48.65182 -123.40977 504 ft 87 kts
2026-04-26 03:50 48.65791 -123.40875 739 ft 88 kts 12°
2026-04-26 03:50 48.66313 -123.41151 856 ft 96 kts 277°
2026-04-26 03:51 48.66356 -123.42158 1111 ft 91 kts 271°
2026-04-26 03:51 48.66456 -123.43071 1116 ft 89 kts 284°
2026-04-26 03:51 48.66536 -123.44007 963 ft 88 kts 280°
2026-04-26 03:51 48.66611 -123.44905 854 ft 83 kts 280°
2026-04-26 03:52 48.66666 -123.45771 705 ft 83 kts 261°
2026-04-26 03:52 48.66264 -123.46185 511 ft 72 kts 176°
2026-04-26 03:52 48.65802 -123.46176 461 ft 67 kts 147°
2026-04-26 03:52 48.65565 -123.45516 376 ft 76 kts 112°
2026-04-26 03:53 48.65384 -123.44818 250 ft 70 kts 112°
2026-04-26 03:53 48.65228 -123.44092 129 ft 70 kts 111°
2026-04-26 03:53 48.65085 -123.43393 55 ft 64 kts 108°
2026-04-26 03:53 48.64975 -123.42831 53 ft 39 kts 106°
2026-04-26 03:54 48.64942 -123.42667 52 ft 0 kts 104°
2026-04-26 03:54 48.64909 -123.42499 52 ft 43 kts 107°
2026-04-26 03:54 48.64807 -123.41875 147 ft 68 kts 103°
2026-04-26 03:54 48.64714 -123.41146 356 ft 74 kts 95°
2026-04-26 03:55 48.65112 -123.40739 528 ft 86 kts
2026-04-26 03:55 48.65687 -123.40741 805 ft 83 kts
2026-04-26 03:55 48.66017 -123.41436 830 ft 97 kts 276°
2026-04-26 03:55 48.66078 -123.42432 914 ft 95 kts 284°
2026-04-26 03:56 48.66198 -123.43409 958 ft 92 kts 292°
2026-04-26 03:56 48.66372 -123.44353 950 ft 94 kts 281°
2026-04-26 03:56 48.66523 -123.45297 955 ft 93 kts 289°
2026-04-26 03:56 48.66377 -123.46202 822 ft 97 kts 213°
2026-04-26 03:57 48.65746 -123.46171 635 ft 91 kts 131°
2026-04-26 03:57 48.65480 -123.45293 403 ft 90 kts 111°
2026-04-26 03:57 48.65282 -123.44405 148 ft 88 kts 108°
2026-04-26 03:57 48.65113 -123.43583 49 ft 70 kts 109°
2026-04-26 03:58 48.65018 -123.43087 53 ft 33 kts 107°
2026-04-26 03:58 48.64953 -123.42753 53 ft 28 kts 103°
2026-04-26 03:58 48.64855 -123.42620 51 ft 19 kts 237°
2026-04-26 03:58 48.64833 -123.42662 51 ft 0 kts 228°
2026-04-26 03:59 48.64835 -123.42733 51 ft 20 kts 284°
2026-04-26 03:59 48.64881 -123.42972 53 ft 26 kts 286°
2026-04-26 03:59 48.64937 -123.43271 51 ft 33 kts 286°
2026-04-26 03:59 48.65000 -123.43599 50 ft 20 kts 287°
2026-04-26 04:00 48.65017 -123.43685 50 ft 8 kts 219°
2026-04-26 04:00 48.64970 -123.43569 50 ft 17 kts 183°
2026-04-26 04:00 48.64881 -123.43529 50 ft 0 kts 108°